WESTERN HEAD, Nova Scotia

1:20 AM AST on December 04, 2016 (GMT -0400)
Western Head

Weather History for CWWE - October, 2012

Change the Weather History Date:

Monday, October 1, 2012

  Actual Average Record
Temperature  
Mean Temperature 58 °F -  
Max Temperature 62 °F - - ()
Min Temperature 54 °F - - ()
Degree Days  
Heating Degree Days 6    
Growing Degree Days 8 (Base 50)    
Moisture  
Dew Point 56 °F    
Average Humidity 93    
Maximum Humidity 100    
Minimum Humidity 79    
Precipitation  
Precipitation 0.08 in - - ()
Sea Level Pressure  
Sea Level Pressure 29.78 in    
Wind  
Wind Speed 11 mph ()    
Max Wind Speed 24 mph    
Max Gust Speed 30 mph    
T = Trace of Precipitation, MM = Missing Value Source: Averaged Metar Reports

Daily Weather History Graph

Daily Weather History Graph

Search for Another Location

Airport or City:

Trip Planner

Search our weather history database for the weather conditions in past years. The results will help you decide how hot, cold, wet, or windy it might be!

Date:

Astronomy

Oct. 01, 2012 Rise Set
Actual Time 7:16 AM ADT 6:58 PM ADT
Civil Twilight 6:48 AM ADT 7:27 PM ADT
Nautical Twilight 6:14 AM ADT 8:00 PM ADT
Astronomical Twilight 5:40 AM ADT 8:34 PM ADT
Moon 7:27 PM ADT (10/1) 8:47 AM ADT (10/1)
Length of Visible Light 12h 39m
Length of Day
11h 41m
Full, 98% of the Moon is Illuminated
Oct 1
Full
Oct 8
Last Quarter
Oct 15
New
Oct 22
First Quarter
Oct 29
Full

Hourly Weather History & Observations

Time (ADT) Temp. Dew Point Humidity Pressure Visibility Wind Dir Wind Speed Gust Speed Precip Events Conditions
12:00 AM 58 °F 58 °F 98% 29.78 in - SSW 10.4 mph - -  
12:00 AM 57.6 °F 57.6 °F 100% 29.78 in - SSW 10.4 mph - N/A   Unknown
1:00 AM 57.4 °F 57.4 °F 100% 29.78 in - SSW 13.8 mph - N/A   Unknown
2:00 AM 57.6 °F 57.6 °F 100% 29.79 in - SSW 11.5 mph - N/A   Unknown
3:00 AM 57 °F 57 °F 98% 29.78 in - SSW 8.1 mph - -  
3:00 AM 56.8 °F 56.7 °F 99% 29.78 in - SSW 8.1 mph - N/A   Unknown
4:00 AM 57.0 °F 56.8 °F 99% 29.78 in - SSW 10.4 mph - N/A   Unknown
5:00 AM 57.2 °F 57.0 °F 99% 29.79 in - SSW 10.4 mph - N/A   Unknown
6:00 AM 56 °F 56 °F 98% 29.78 in - SSW 9.2 mph - -  
6:00 AM 55.8 °F 55.6 °F 99% 29.78 in - SSW 9.2 mph - N/A   Unknown
7:00 AM 56.5 °F 56.3 °F 99% 29.80 in - SW 9.2 mph - N/A   Unknown
8:00 AM 56.1 °F 55.9 °F 99% 29.81 in - SSW 9.2 mph - N/A   Unknown
9:00 AM 58 °F 57 °F 96% 29.82 in - SSW 10.4 mph - -  
9:00 AM 57.6 °F 57.2 °F 99% 29.82 in - SSW 10.4 mph - N/A   Unknown
10:00 AM 59.4 °F 57.6 °F 94% 29.81 in - SSW 12.7 mph - N/A   Unknown
11:00 AM 60.1 °F 57.0 °F 90% 29.81 in - South 15.0 mph - N/A   Unknown
12:00 PM 61 °F 57 °F 83% 29.79 in - South 13.8 mph - -  
12:00 PM 61.3 °F 57.2 °F 86% 29.79 in - South 13.8 mph - N/A   Unknown
1:00 PM 61.2 °F 56.8 °F 86% 29.78 in - South 16.1 mph - N/A   Unknown
3:00 PM 62 °F 57 °F 79% 29.75 in - SSW 24.2 mph - -  
3:00 PM 61.9 °F 57.0 °F 84% 29.75 in - SSW 24.2 mph 29.9 mph N/A   Unknown
4:00 PM 60.3 °F 55.0 °F 83% 29.74 in - SSW 21.9 mph 27.6 mph N/A   Unknown
5:00 PM 58.8 °F 55.6 °F 89% 29.73 in - SSW 19.6 mph - N/A   Unknown
6:00 PM 56 °F 54 °F 90% 29.75 in - WSW 21.9 mph - -  
6:00 PM 56.1 °F 54.0 °F 92% 29.75 in - WSW 21.9 mph 27.6 mph 0.06 in   Unknown
7:00 PM 57.2 °F 54.1 °F 89% 29.75 in - SW 18.4 mph - N/A   Unknown
8:00 PM 56.5 °F 54.1 °F 92% 29.77 in - SW 13.8 mph - N/A   Unknown
9:00 PM 56 °F 54 °F 90% 29.79 in - WSW 13.8 mph - -  
9:00 PM 56.3 °F 54.0 °F 92% 29.79 in - WSW 13.8 mph - N/A   Unknown
10:00 PM 55.9 °F 54.0 °F 93% 29.81 in - SW 10.4 mph - N/A   Unknown
11:00 PM 54.5 °F 53.1 °F 95% 29.82 in - WSW 10.4 mph - N/A   Unknown